Location: Dodge City Community College Clyde Tombaugh Astronomy Center
(37.7756°N, 100.0412°W)
Time: 15:00:34
(UTC+00:00)

Cosmos 1428 Rocket - Pass Details

Date: 08 December 2021
Orbit: 949 x 987 km, 82.9° (Epoch: 20 January)

Event Time Altitude Azimuth Distance (km) Brightness Sun altitude
Rises 12:43:07 0° 187° (S) 3,627 7.7 -11.7°
Reaches altitude 10° 12:45:36 10° 188° (S) 2,679 7.0 -11.2°
Maximum altitude 12:51:44 82° 276° (W) 965 4.4 -10.1°
Drops below altitude 10° 12:57:53 10° 5° (N) 2,680 6.6 -8.9°
Sets 13:00:23 0° 6° (N) 3,628 7.3 -8.5°
